User: anonymous   Login
Location: Borovka
(49.7741°N, 14.5280°E)
Time: 23:19:56
(UTC+00:00)
Language:

DUCHIFAT 1 - Orbit

View from above orbital plane
View from above orbital plane
View from above satellite
View from above satellite

Ground track
Ground track

The orbit is defined by the following mean orbital elements,

1 40021U          26071.60492272 +.00000000 +00000-0 +10946-2 0 00000
2 40021  98.0637 118.3770 0005916  76.4423 283.7485 15.50196754    06
Epoch (UTC): 12 March 2026 14:31:05
Eccentricity: 0.0005916
inclination: 98.0637°
perigee height: 412 km
apogee height: 420 km
right ascension of ascending node: 118.3770°
argument of perigee: 76.4423°
revolutions per day: 15.50196754
mean anomaly at epoch: 283.7485°

The dashed part of the orbit path shows where the satellite is in the earth's shadow,  

DLR